Voltar ao catálogo

STARLINK-11171

AtivoComunicaçõesVLEO
NORAD 60069·PAYLOAD·🇺🇸 United States

Lançado Jun 19, 2024 de Vandenberg Space Force Base

Loading…

Próximas Passagens (próximas 24 horas)

TLE

AtualizadoSource: CelesTrak SupGP

Época: Sep 14, 2026, 22:08 UTC

1 60069C 24113L   26257.92270833 -.00062360  00000+0 -51367-3 0  2578
2 60069  53.1568 338.6590 0001245  72.1511  96.5659 15.69740719    14

Acompanhe STARLINK-11171 em tempo real com AllMySat

Download on the App Store